Regional Weather Roundup
Issued by NWS

Home | Current Version | Previous Version | Text Only | Print | Product List | Glossary On
Versions: 1 2 3 4 5 6 7 8 9 10 11 12 13 14 15 16 17 18 19 20 21 22 23 24 25 26 27 28 29 30 31 32 33 34 35 36 37 38 39 40 41 42 43 44 45 46 47 48 49 50
000
ASUS44 KLUB 040010
RWRTX
WEST TEXAS WEATHER ROUNDUP
NATIONAL WEATHER SERVICE LUBBOCK TX
700 PM CDT WED JUN 03 2015

NOTE: "FAIR" INDICATES FEW OR NO CLOUDS BELOW 12,000 FEET WITH NO
SIGNIFICANT WEATHER AND/OR OBSTRUCTIONS TO VISIBILITY.

TXZ004-006>008-010-012-014-016-OKZ002-040100-
TEXAS PANHANDLE/OKLAHOMA PANHANDLE

CITY           SKY/WX    TMP DP  RH WIND       PRES   REMARKS
AMARILLO       SUNNY     88  61  40 S21G26    29.85F
BORGER         MOSUNNY   92  60  34 S13G24    29.82S
CANADIAN       SUNNY     88  64  45 S17G26    29.81S
DALHART        MOSUNNY   91  49  23 S14       29.85F
DUMAS          MOSUNNY   88  60  38 S16       29.84F
GUYMON         MOSUNNY   90  62  39 S12       29.79F
HEREFORD       SUNNY     89  57  33 MISG      29.85F
PAMPA          SUNNY     84  63  49 S21       29.85F
PERRYTON       SUNNY     88  63  42 S18G24    29.82S
$$

TXZ026-029-035-045-048-040100-
SOUTHERN PANHANDLE/SOUTH PLAINS/ROLLING PLAINS

CITY           SKY/WX    TMP DP  RH WIND       PRES   REMARKS
CHILDRESS      SUNNY     89  65  44 S20G28    29.81S
SEMINOLE       SUNNY     92  55  28 SE17G26   29.84S
LUBBOCK        MOSUNNY   88  64  44 S18       29.84F
PLAINVIEW      SUNNY     88  65  47 S18G24    29.85S
SNYDER         SUNNY     87  67  52 SE16      29.86S
$$

TXZ052-054-060>062-072-078-127-140-154-169-040100-
PERMIAN BASIN/CONCHO VALLEY/BIG COUNTRY/EDWARDS PLATEAU

CITY           SKY/WX    TMP DP  RH WIND       PRES   REMARKS
ABILENE        SUNNY     87  65  47 S16       29.85F
BIG SPRING     SUNNY     89  62  41 SE16G22   29.86F
BRADY          SUNNY     86  63  45 SE12      29.88S
BROWNWOOD      SUNNY     86  64  48 SE10      29.87S
JUNCTION       SUNNY     87  63  44 SE10G21   29.87S
MIDLAND        SUNNY     92  60  34 S18       29.84S
ODESSA         SUNNY     92  57  30 S16G25    29.85F
SAN ANGELO     SUNNY     88  63  43 S14       29.84F
SONORA         SUNNY     86  63  45 S12       29.92R
WINK           SUNNY     96  55  25 SE17G26   29.78F
$$

TXZ055-058-074-075-080-082-040100-
FAR WEST/SOUTHWEST MOUNTAINS/TRANS PECOS

CITY           SKY/WX    TMP DP  RH WIND       PRES   REMARKS
ALPINE         MOSUNNY   87  54  32 SE17G23   29.98S
DRYDEN           N/A     91  64  40 SE14G21   29.82F
EL PASO        SUNNY     96  14   5 SW14G24   29.86F
FORT STOCKTON  SUNNY     91  59  33 SE16G26   29.83F
GUADALUPE PASS SUNNY     90  28  11 SW29G36   29.99F
MARFA          MOSUNNY   90  43  19 E10G26    29.97F
PECOS          SUNNY     97  52  21 E14G22    29.77S HX  95
PRESIDIO       FAIR     103  30   7 S9        29.76F HX  96
$$

TXZ014-016-019-021>030-083-040100
TEXAS TECH WEST TEXAS MESONET/TEXAS PANHANDLE/NORTHERN SOUTH PLAINS

CITY           SKY/WX    TMP DP  RH WIND       PRES   REMARKS
ABERNATHY 5ENE   N/A     87  61  40 S20       29.86F
AMARILLO 7SSE    N/A     87  63  44 SE21      29.86F
AMHERST 1NE      N/A     90  53  28 SE15      29.84S
BOOTLEG 11WNW    N/A     89  43  20 SE13      29.90S
CANADIAN 6E      N/A     87  65  47 S20       29.81R
CAPROCK CYN SP   N/A     87  64  46 SE15      29.84S
CHILDRESS 2NNE   N/A     89  61  39 SE20      29.81S
CLARENDON 2WSW   N/A     86  63  44 S18       29.84S
CLAUDE 12SW      N/A     86  63  45 S12       29.86S
DIMMITT 2NE      N/A     85  59  41 SE13      29.86S
FLOYDADA 2NNE    N/A     85  64  48 S14       29.87S
FRIONA 2NE       N/A     89  53  29 SE14      29.86S
GOODLETT 3W      N/A     89  61  39 SE18      29.80S
HART 3N          N/A     89  56  32 SE20      29.86S
HEREFORD 2NW     N/A     90  42  18 SE10      29.85S
MCLEAN 1E        N/A     85  62  45 S20       29.84S
MEMPHIS 1NE      N/A     89  65  44 SE13      29.81S
MULESHOE 2SSW    N/A     90  49  24 SE9       29.84S
OLTON 6S         N/A     87  58  36 SE18      29.85S
PALO DURO SP     N/A     88  62  42 S16       29.86F
PAMPA 2E         N/A     85  65  50 S20       29.85S
PLAINVIEW 1S     N/A     86  64  47 SE15      29.85S
SILVERTON 7ESE   N/A     85  65  50 SE15      29.87S
TULIA 2ENE       N/A     86  65  49 SE17      29.86S
UMBARGER 3NNE    N/A     88  58  36 S21       29.86F
$$

TXZ033>036-039>041-045>048-040100
TEXAS TECH WEST TEXAS MESONET/SOUTH PLAINS

CITY           SKY/WX    TMP DP  RH WIND       PRES   REMARKS
AIKEN 3WSW       N/A     87  65  49 S20       29.87F
ANDREWS 2NE      N/A     91  52  26 S13       29.85S
ANTON 6SSW       N/A     90  59  34 SE25      29.83F
BROWNFIELD 2S    N/A     90  55  30 S21       29.84S
DENVR CTY 7WNW   N/A     93  28  10 S9        29.84S
GAIL 2ESE        N/A     86  66  50 S12       29.83F
LAMESA 2SE       N/A     89  60  37 SE17      29.84F
LEVELLAND 4S     N/A     90  53  28 S18       29.84S
LUBBOCK 3WNW     N/A     89  60  37 SE15      29.85S
MORTON 1ENE      N/A     94  35  12 S10       29.84S
ODONNELL 1N      N/A     87  61  40 SE16      29.85S
PLAINS 3N        N/A     94  38  14 S6        29.84F
RALLS 1SE        N/A     85  66  52 S20       29.87F
REESE CENTER     N/A     87  60  41 SE22      29.84S
SEAGRAVES 1SW    N/A     90  57  32 SE16      29.83S
SEMINOLE 2NNE    N/A     91  54  28 SE18      29.83S
SLATON 2NE       N/A     85  64  47 SE21      29.85F
SNYDER 3E        N/A     87  66  50 S16       29.84S
SUNDOWN 8SW      N/A     88  59  36 SE21      29.84F
TAHOKA 3NNE      N/A     86  64  47 SE18      29.84F
WOLFFORTH 6SSW   N/A     88  64  44 SE21      29.84S
$$

TXZ031-032-036>038-042>044-040100-
TEXAS TECH WEST TEXAS MESONET/ROLLING PLAINS

CITY           SKY/WX    TMP DP  RH WIND       PRES   REMARKS
ASPERMONT 3NE    N/A     89  66  46 SE13      29.82S
FLUVANNA 3WNW    N/A     87  62  43 S18       29.85S
GRAHAM 5SSW      N/A     86  62  45 S20       29.84F
GUTHRIE 10WSW    N/A     88  64  45 S15       29.81S
HASKELL 1NW      N/A     86  62  44 SE13      29.82S
JAYTON 1SSE      N/A     87  66  48 SE10      29.82S
KNOX CITY 3NW    N/A     89  63  42 SE15      29.81S
LK A HENRY 1NW   N/A     87  67  51 S14       29.83S
NORTHFIELD 1S    N/A     89  66  46 SE15      29.81S
ODELL 4ENE       N/A     88  64  44 SE20      29.82S
POST 1NE         N/A     87  66  49 SE10      29.84S
RRING SPRGS 3N   N/A     86  65  50 S17       29.84F
SEYMOUR 3NW      N/A     87  65  47 SE14      29.81F
SPUR 1W          N/A     86  64  46 SE13      29.83S
WEINERT 2NNE     N/A     86  66  50 SE16      29.82F
WHITE RVR 6NE    N/A     87  65  49 SE17      29.84S
$$

TXZ052-054-060>062-072-078-127-140-154-169-040100-
TEXAS TECH WEST TEXAS MESONET/PERMIAN BASIN/
CONCHO VALLEY/BIG COUNTRY/EDWARDS PLATEAU

CITY           SKY/WX    TMP DP  RH WIND       PRES   REMARKS
COYANOSA 2N      N/A     94  60  32 SE17      29.80S
JUNCTION 1SSW    N/A     87  65  49 SE10      29.88R
MERTZON 3NNE     N/A     86  65  49 SE8       29.87S
SAN ANGELO 7NW   N/A     89  59  37 S12       29.85S
STRLNG CT 4WSW   N/A     87  66  49 SE12      29.86S
ST LAWRNCE 5SW   N/A     88  62  42 SE18      29.86S
SWEETWATR 11SW   N/A     86  65  49 SE15      29.87S
WALL 1E          N/A     90  59  35 SE15      29.86S
$$

TXZ055-058-074-075-080-082-040100-
TEXAS TECH WEST TEXAS MESONET/FAR WEST/SOUTHWEST MOUNTAINS/TRANS PECOS

CITY           SKY/WX    TMP DP  RH WIND       PRES   REMARKS
PRSMN GAP BBNP   N/A     94  59  30 NE20      29.81S
$$


USA.gov is the U.S. government's official web portal to all federal, state and local government web resources and services.